N4DWK Weather Reports


Display with metric or nautical units.
time (UTC)temp
F
wind
direction
speed
MPH
gust
MPH
rain 1hr
in
rain 24hr
in
rain mn
in
humidity
%
barometer
mb
20260510060004 65 220 1.0 6.0 0.00 0.00 0.00 83 1011.1
20260510055505 65 221 2.0 6.0 0.00 0.00 0.00 83 1011.1
20260510055004 65 228 1.0 5.0 0.00 0.00 0.00 83 1011.1
20260510054504 66 215 1.0 3.0 0.00 0.00 0.00 83 1011.2
20260510054004 66 217 2.0 3.0 0.00 0.00 0.00 82 1011.2
20260510052505 66 230 2.0 7.0 0.00 0.00 0.00 81 1011.2
20260510051504 67 226 2.0 5.0 0.00 0.00 0.00 81 1011.2
20260510051005 67 218 2.0 5.0 0.00 0.00 0.00 81 1011.2
20260510050503 67 213 2.0 7.0 0.00 0.00 0.00 81 1011.2
20260510050004 67 228 3.0 7.0 0.00 0.00 0.00 81 1011.1
20260510045504 67 218 2.0 7.0 0.00 0.00 0.00 80 1011.1
20260510045004 67 217 2.0 7.0 0.00 0.00 0.00 80 1011.1
20260510044504 67 233 2.0 6.0 0.00 0.00 0.00 80 1011.2
20260510044004 67 217 2.0 6.0 0.00 0.00 0.00 80 1011.3
20260510043505 67 212 3.0 7.0 0.00 0.00 0.00 80 1011.1
20260510043004 67 211 2.0 7.0 0.00 0.00 0.00 79 1011.1
20260510042004 67 215 2.0 8.0 0.00 0.00 0.00 79 1011.1
20260510041504 67 212 3.0 8.0 0.00 0.00 0.00 79 1011.1
20260510041005 67 231 4.0 8.0 0.00 0.00 0.00 79 1011.1
20260510040005 67 223 3.0 5.0 0.00 0.00 0.00 78 1011.0
20260510035504 67 222 3.0 5.0 0.00 0.00 0.00 77 1011.0
20260510035004 67 224 3.0 3.0 0.00 0.00 0.00 77 1010.9
20260510034503 67 191 2.0 3.0 0.00 0.00 0.00 77 1011.0
20260510034004 67 229 2.0 5.0 0.00 0.00 0.00 76 1010.9
20260510033504 67 217 2.0 5.0 0.00 0.00 0.00 76 1010.9
20260510033004 67 210 2.0 3.0 0.00 0.00 0.00 76 1010.9
20260510032504 67 217 2.0 3.0 0.00 0.00 0.00 76 1010.9
20260510031504 67 225 3.0 5.0 0.00 0.00 0.00 75 1010.8
20260510031004 68 222 1.0 3.0 0.00 0.00 0.00 75 1010.8
20260510030004 68 223 2.0 3.0 0.00 0.00 0.00 74 1010.7
20260510025504 68 224 2.0 3.0 0.00 0.00 0.00 74 1010.7
20260510025005 68 216 2.0 5.0 0.00 0.00 0.00 74 1010.6
20260510024504 68 215 2.0 5.0 0.00 0.00 0.00 74 1010.6
20260510024005 68 211 2.0 3.0 0.00 0.00 0.00 74 1010.6
20260510023503 67 221 2.0 3.0 0.00 0.00 0.00 74 1010.5
20260510023003 67 215 2.0 3.0 0.00 0.00 0.00 74 1010.5
20260510022504 67 216 2.0 3.0 0.00 0.00 0.00 75 1010.5
20260510022004 67 211 1.0 3.0 0.00 0.00 0.00 75 1010.4
20260510021503 67 209 1.0 3.0 0.00 0.00 0.00 75 1010.3
20260510021006 67 209 2.0 3.0 0.00 0.00 0.00 75 1010.2
20260510020505 66 211 0.0 0.0 0.00 0.00 0.00 75 1010.3
20260510020006 66 211 0.0 0.0 0.00 0.00 0.00 75 1010.2
20260510015505 66 211 0.0 0.0 0.00 0.00 0.00 74 1010.0
20260510015006 67 211 0.0 0.0 0.00 0.00 0.00 74 1010.0
20260510014505 67 211 0.0 0.0 0.00 0.00 0.00 73 1009.9
20260510014005 67 211 0.0 0.0 0.00 0.00 0.00 73 1009.8
20260510013505 67 211 0.0 0.0 0.00 0.00 0.00 73 1009.8
20260510013005 67 211 0.0 0.0 0.00 0.00 0.00 73 1009.9
20260510012505 67 211 0.0 0.0 0.00 0.00 0.00 72 1009.8
20260510012005 67 211 0.0 0.0 0.00 0.00 0.00 72 1009.6
20260510011505 67 211 0.0 0.0 0.00 0.00 0.00 71 1009.6
20260510011006 68 211 0.0 0.0 0.00 0.00 0.00 71 1009.5
20260510010505 68 211 0.0 0.0 0.00 0.00 0.00 71 1009.5
20260510010006 68 211 0.0 0.0 0.00 0.00 0.00 70 1009.6
20260510005505 69 211 0.0 0.0 0.00 0.00 0.00 69 1009.5
20260510005005 69 211 0.0 0.0 0.00 0.00 0.00 69 1009.4
20260510004505 69 211 0.0 0.0 0.00 0.00 0.00 68 1009.3
20260510004006 70 211 0.0 0.0 0.00 0.00 0.00 67 1009.2
20260510003506 70 211 0.0 0.0 0.00 0.00 0.00 67 1009.2
20260510003006 70 211 0.0 0.0 0.00 0.00 0.00 66 1009.2
20260510002506 71 211 0.0 0.0 0.00 0.00 0.00 65 1009.1
20260510002006 71 211 0.0 0.0 0.00 0.00 0.00 64 1009.0
20260510001505 72 211 0.0 0.0 0.00 0.00 0.00 64 1009.1
20260510001006 72 211 0.0 0.0 0.00 0.00 0.00 63 1009.0
20260510000506 73 211 0.0 0.0 0.00 0.00 0.00 62 1008.9
20260510000006 73 211 0.0 0.0 0.00 0.00 0.00 61 1008.8
20260509235506 73 211 0.0 0.0 0.00 0.00 0.00 61 1008.8
20260509234506 74 211 0.0 2.0 0.00 0.00 0.00 59 1008.7
20260509234006 74 211 0.0 3.0 0.00 0.00 0.00 58 1008.6
20260509233505 74 211 1.0 3.0 0.00 0.00 0.00 58 1008.7
20260509232505 75 213 0.0 3.0 0.00 0.00 0.00 57 1008.8
20260509232005 75 213 0.0 3.0 0.00 0.00 0.00 57 1008.7
20260509231505 75 213 1.0 3.0 0.00 0.00 0.00 57 1008.7
20260509231005 75 213 0.0 3.0 0.00 0.00 0.00 56 1008.8
20260509230005 75 215 1.0 3.0 0.00 0.00 0.00 56 1008.7
20260509225506 75 215 0.0 3.0 0.00 0.00 0.00 56 1008.7
20260509225005 76 217 2.0 3.0 0.00 0.00 0.00 55 1008.6
20260509224505 76 217 2.0 5.0 0.00 0.00 0.00 55 1008.6
20260509223505 76 225 3.0 8.0 0.00 0.00 0.00 54 1008.6
20260509223005 76 235 4.0 8.0 0.00 0.00 0.00 53 1008.6
20260509222505 77 220 3.0 8.0 0.00 0.00 0.00 54 1008.6
20260509222006 77 220 2.0 5.0 0.00 0.00 0.00 54 1008.7
20260509221505 77 199 1.0 3.0 0.00 0.00 0.00 55 1008.7
20260509221005 77 232 2.0 3.0 0.00 0.00 0.00 55 1008.6
20260509220505 77 242 1.0 5.0 0.00 0.00 0.00 56 1008.6
20260509220005 77 222 3.0 5.0 0.00 0.00 0.00 54 1008.6
20260509215505 77 234 2.0 5.0 0.00 0.00 0.00 55 1008.6
20260509215007 77 224 3.0 7.0 0.00 0.00 0.00 54 1008.5
20260509214505 76 216 1.0 7.0 0.00 0.00 0.00 56 1008.4
20260509214005 76 233 3.0 6.0 0.00 0.00 0.00 57 1008.5
20260509213505 76 237 3.0 8.0 0.00 0.00 0.00 56 1008.5
20260509213005 76 221 2.0 9.0 0.00 0.00 0.00 55 1008.5
20260509212505 77 224 5.0 9.0 0.00 0.00 0.00 54 1008.5
20260509212006 77 226 3.0 7.0 0.00 0.00 0.00 55 1008.4
20260509211506 77 227 5.0 7.0 0.00 0.00 0.00 54 1008.4
20260509211005 77 218 3.0 9.0 0.00 0.00 0.00 54 1008.4
20260509210505 77 233 2.0 9.0 0.00 0.00 0.00 53 1008.5
20260509210005 77 212 3.0 9.0 0.00 0.00 0.00 53 1008.4
20260509205505 78 216 3.0 9.0 0.00 0.00 0.00 51 1008.5
20260509205005 78 225 5.0 9.0 0.00 0.00 0.00 53 1008.4
20260509204505 78 235 5.0 10.0 0.00 0.00 0.00 54 1008.3
20260509204005 78 225 5.0 10.0 0.00 0.00 0.00 53 1008.3
20260509203505 78 213 5.0 8.0 0.00 0.00 0.00 53 1008.3
20260509203005 78 233 3.0 8.0 0.00 0.00 0.00 54 1008.2
20260509202505 78 226 6.0 8.0 0.00 0.00 0.00 54 1008.2
20260509202005 78 223 4.0 9.0 0.00 0.00 0.00 53 1008.2
20260509201505 78 234 5.0 9.0 0.00 0.00 0.00 53 1008.3
20260509201005 78 224 5.0 9.0 0.00 0.00 0.00 53 1008.4
20260509200005 78 229 5.0 9.0 0.00 0.00 0.00 53 1008.5
20260509195505 77 228 5.0 10.0 0.00 0.00 0.00 53 1008.6
20260509195005 77 230 5.0 10.0 0.00 0.00 0.00 52 1008.6
20260509194505 78 222 5.0 9.0 0.00 0.00 0.00 52 1008.6
20260509194005 77 212 2.0 6.0 0.00 0.00 0.00 55 1008.8
20260509193505 75 229 2.0 8.0 0.00 0.00 0.00 57 1008.9
20260509193005 74 232 3.0 8.0 0.00 0.00 0.00 56 1009.0
20260509192505 75 222 3.0 7.0 0.00 0.00 0.00 55 1009.1
20260509192005 76 221 3.0 7.0 0.00 0.00 0.00 54 1009.0
20260509191505 77 193 3.0 5.0 0.00 0.00 0.00 53 1009.1
20260509190505 78 217 2.0 12.0 0.00 0.00 0.00 53 1009.2
20260509190006 76 217 2.0 10.0 0.00 0.00 0.00 54 1009.3
20260509185505 75 219 3.0 10.0 0.00 0.00 0.00 55 1009.4
20260509185006 75 220 3.0 12.0 0.00 0.00 0.00 55 1009.4
20260509184505 76 222 3.0 12.0 0.00 0.00 0.00 53 1009.6
20260509184006 77 234 6.0 12.0 0.00 0.00 0.00 52 1009.6
20260509183505 78 222 5.0 12.0 0.00 0.00 0.00 51 1009.6
20260509182505 76 229 3.0 7.0 0.00 0.00 0.00 56 1009.7
20260509182006 74 224 4.0 10.0 0.00 0.00 0.00 57 1009.8
20260509181505 74 240 2.0 10.0 0.00 0.00 0.00 57 1009.9
20260509181005 74 228 4.0 8.0 0.00 0.00 0.00 56 1010.0
20260509180504 75 207 2.0 8.0 0.00 0.00 0.00 58 1010.0
20260509180006 74 128 2.0 9.0 0.00 0.00 0.00 58 1010.0
20260509175505 74 224 3.0 12.0 0.00 0.00 0.00 56 1010.1
20260509175006 75 225 7.0 12.0 0.00 0.00 0.00 53 1010.2
20260509174505 76 222 4.0 9.0 0.00 0.00 0.00 55 1010.1
20260509174006 75 237 4.0 8.0 0.00 0.00 0.00 55 1010.2
20260509173504 75 220 3.0 6.0 0.00 0.00 0.00 56 1010.2
20260509173005 74 230 4.0 7.0 0.00 0.00 0.00 55 1010.2
20260509172504 75 212 4.0 10.0 0.00 0.00 0.00 55 1010.2
20260509171504 75 214 3.0 8.0 0.00 0.00 0.00 56 1010.3
20260509171005 73 231 3.0 8.0 0.00 0.00 0.00 59 1010.4
20260509170505 72 208 2.0 9.0 0.00 0.00 0.00 60 1010.6
20260509170005 72 231 4.0 10.0 0.00 0.00 0.00 60 1010.6
20260509165505 72 201 3.0 10.0 0.00 0.00 0.00 59 1010.8
20260509165005 72 228 3.0 10.0 0.00 0.00 0.00 60 1010.9
20260509163005 73 237 4.0 9.0 0.00 0.00 0.00 58 1011.0
20260509162505 72 145 2.0 9.0 0.00 0.00 0.00 60 1010.9
20260509162004 72 229 3.0 12.0 0.00 0.00 0.00 60 1011.0
20260509161505 71 208 3.0 12.0 0.00 0.00 0.00 60 1011.0
20260509161006 71 213 6.0 10.0 0.00 0.00 0.00 58 1011.2
20260509160505 71 223 5.0 9.0 0.00 0.00 0.00 58 1011.3
20260509160005 71 229 3.0 8.0 0.00 0.00 0.00 61 1011.3
20260509155505 71 224 4.0 8.0 0.00 0.00 0.00 61 1011.3
20260509155005 70 215 4.0 12.0 0.00 0.00 0.00 61 1011.3
20260509154505 70 217 5.0 15.0 0.00 0.00 0.00 61 1011.5
20260509154006 70 223 6.0 15.0 0.00 0.00 0.00 60 1011.7
20260509153505 70 226 6.0 12.0 0.00 0.00 0.00 61 1011.7
20260509153006 70 223 5.0 12.0 0.00 0.00 0.00 62 1011.6
20260509152506 70 243 5.0 9.0 0.00 0.00 0.00 62 1011.5
20260509152006 69 229 4.0 8.0 0.00 0.00 0.00 66 1011.6
20260509151505 68 234 4.0 9.0 0.00 0.00 0.00 65 1011.8
20260509150505 68 215 7.0 12.0 0.00 0.00 0.00 66 1012.0
20260509150004 68 244 2.0 7.0 0.00 0.00 0.00 67 1011.9
20260509145505 67 233 3.0 12.0 0.00 0.00 0.00 67 1012.0
20260509145005 67 204 3.0 12.0 0.00 0.00 0.00 67 1012.1
20260509144504 67 225 5.0 12.0 0.00 0.00 0.00 68 1012.3
20260509143504 66 240 2.0 12.0 0.00 0.00 0.00 69 1012.4
20260509143006 66 232 5.0 8.0 0.00 0.00 0.00 69 1012.6
20260509142505 66 228 2.0 7.0 0.00 0.00 0.00 71 1012.6
20260509142004 66 235 3.0 8.0 0.00 0.00 0.00 71 1012.6
20260509141005 65 235 4.0 8.0 0.00 0.00 0.00 73 1012.7
20260509140505 65 220 2.0 7.0 0.00 0.00 0.00 74 1012.7
20260509140006 65 226 2.0 7.0 0.00 0.00 0.00 74 1012.6
20260509135505 64 205 3.0 8.0 0.00 0.00 0.00 75 1012.6
20260509135005 64 223 4.0 8.0 0.00 0.00 0.00 75 1012.7
20260509134505 63 223 2.0 7.0 0.00 0.00 0.00 77 1012.8
20260509134005 63 237 3.0 6.0 0.00 0.00 0.00 77 1012.9
20260509133504 63 206 3.0 7.0 0.00 0.00 0.00 77 1013.1
20260509133005 63 238 3.0 7.0 0.00 0.00 0.00 78 1013.1
20260509132504 62 217 5.0 7.0 0.00 0.00 0.00 78 1013.2
20260509132005 62 227 2.0 7.0 0.00 0.00 0.00 79 1013.3
20260509131504 62 217 4.0 7.0 0.00 0.00 0.00 78 1013.3
20260509130504 62 218 2.0 9.0 0.00 0.00 0.00 80 1013.1
20260509130005 61 213 3.0 9.0 0.00 0.00 0.00 79 1013.1
20260509125505 61 224 5.0 7.0 0.00 0.00 0.00 81 1013.0
20260509125005 61 223 2.0 5.0 0.00 0.00 0.00 82 1012.9
20260509124504 60 221 3.0 6.0 0.00 0.00 0.00 82 1013.0
20260509124005 60 219 3.0 7.0 0.00 0.00 0.00 83 1013.0
20260509123505 59 204 3.0 7.0 0.00 0.00 0.00 83 1013.1
20260509123005 59 231 2.0 7.0 0.00 0.00 0.00 84 1013.1
20260509122504 58 213 2.0 7.0 0.00 0.00 0.00 85 1013.1
20260509122005 58 209 2.0 7.0 0.00 0.00 0.00 86 1013.2
20260509121505 58 210 3.0 7.0 0.00 0.00 0.00 86 1013.2
20260509121005 57 216 2.0 5.0 0.00 0.00 0.00 86 1013.3
20260509120504 57 235 1.0 3.0 0.00 0.00 0.00 87 1013.4
20260509120004 56 236 2.0 3.0 0.00 0.00 0.00 87 1013.3
20260509115506 56 192 0.0 3.0 0.00 0.00 0.00 87 1013.1
20260509115005 56 192 2.0 3.0 0.00 0.00 0.00 88 1013.2
20260509114004 55 196 1.0 3.0 0.00 0.00 0.00 88 1013.0
20260509113504 55 173 1.0 3.0 0.00 0.00 0.00 89 1012.9
20260509113004 55 172 1.0 5.0 0.00 0.00 0.00 89 1013.0
20260509112504 54 94 0.0 5.0 0.00 0.00 0.00 89 1013.0
20260509112004 54 209 1.0 3.0 0.00 0.00 0.00 89 1012.9
20260509111505 54 209 0.0 1.0 0.00 0.00 0.00 89 1012.9
20260509111005 54 209 0.0 3.0 0.00 0.00 0.00 89 1012.9
20260509110505 54 209 1.0 3.0 0.00 0.00 0.00 89 1013.0
20260509110004 54 209 0.0 3.0 0.00 0.00 0.00 89 1012.9
20260509105505 53 209 1.0 3.0 0.00 0.00 0.00 89 1012.9
20260509105004 53 165 0.0 0.0 0.00 0.00 0.00 88 1013.0
20260509104505 53 165 0.0 0.0 0.00 0.00 0.00 88 1013.0
20260509104005 53 71 0.0 0.0 0.00 0.00 0.00 88 1013.0
20260509103504 53 69 0.0 2.0 0.00 0.00 0.00 88 1013.0
20260509102504 53 66 0.0 2.0 0.00 0.00 0.00 87 1013.0
20260509102005 53 66 0.0 0.0 0.00 0.00 0.00 87 1012.8
20260509101510 53 66 0.0 0.0 0.00 0.00 0.00 87 1012.8
20260509101005 53 65 0.0 0.0 0.00 0.00 0.00 86 1012.8
20260509100505 53 65 0.0 0.0 0.00 0.00 0.00 86 1012.8
20260509100005 53 65 0.0 0.0 0.00 0.00 0.00 86 1012.8
20260509095505 54 65 0.0 0.0 0.00 0.00 0.00 85 1012.8
20260509095004 54 237 0.0 3.0 0.00 0.00 0.00 85 1012.9
20260509094504 54 237 1.0 3.0 0.00 0.00 0.00 85 1012.9
20260509094005 54 180 0.0 3.0 0.00 0.00 0.00 84 1012.9
20260509093505 54 205 0.0 3.0 0.00 0.00 0.00 84 1012.9
20260509093005 54 204 1.0 3.0 0.00 0.00 0.00 84 1013.0
20260509092505 54 200 0.0 6.0 0.00 0.00 0.00 83 1012.9
20260509091508 55 112 2.0 6.0 0.00 0.00 0.00 82 1013.1
20260509091005 55 257 1.0 3.0 0.00 0.00 0.00 82 1013.1
20260509090505 55 237 0.0 3.0 0.00 0.00 0.00 81 1013.0
20260509090004 55 195 0.0 2.0 0.00 0.00 0.00 81 1013.0
20260509085505 55 194 0.0 3.0 0.00 0.00 0.00 81 1012.9
20260509085005 55 194 0.0 5.0 0.00 0.00 0.00 81 1012.9
20260509084505 55 144 1.0 5.0 0.00 0.00 0.00 80 1012.9
20260509084005 55 205 1.0 3.0 0.00 0.00 0.00 80 1012.8
20260509083504 55 154 1.0 5.0 0.00 0.00 0.00 80 1012.8
20260509083004 55 187 1.0 5.0 0.00 0.00 0.00 80 1012.8
20260509082005 55 221 0.0 0.0 0.00 0.00 0.00 80 1012.8
20260509081504 55 221 0.0 0.0 0.00 0.00 0.00 80 1012.7
20260509081005 55 221 0.0 0.0 0.00 0.00 0.00 79 1012.7
20260509080504 55 221 0.0 0.0 0.00 0.00 0.00 79 1012.7
20260509080004 55 221 0.0 0.0 0.00 0.00 0.00 78 1012.8
20260509075504 55 221 0.0 0.0 0.00 0.00 0.00 77 1012.9
20260509075004 56 221 0.0 0.0 0.00 0.00 0.00 77 1013.0
20260509074504 56 221 0.0 0.0 0.00 0.00 0.00 76 1013.0
20260509073504 56 221 0.0 0.0 0.00 0.00 0.00 76 1013.1
20260509073004 57 221 0.0 0.0 0.00 0.00 0.00 75 1013.1
20260509072004 57 221 0.0 0.0 0.00 0.00 0.00 76 1013.1
20260509071505 56 221 0.0 3.0 0.00 0.00 0.00 75 1013.1
20260509071004 56 221 0.0 3.0 0.00 0.00 0.00 75 1013.2
20260509070504 56 220 1.0 3.0 0.00 0.00 0.00 75 1013.2
20260509065506 56 213 1.0 5.0 0.00 0.00 0.00 76 1013.4
20260509065005 56 205 2.0 5.0 0.00 0.00 0.00 75 1013.5
20260509064504 56 208 0.0 3.0 0.00 0.00 0.00 75 1013.5
20260509064005 56 208 1.0 3.0 0.00 0.00 0.00 75 1013.7
20260509063504 56 207 2.0 3.0 0.00 0.00 0.00 75 1013.8
20260509063004 56 204 1.0 3.0 0.00 0.00 0.00 74 1013.9
20260509062504 56 188 1.0 3.0 0.00 0.00 0.00 74 1014.0
20260509062004 56 202 1.0 3.0 0.00 0.00 0.00 74 1014.0
20260509061504 56 190 0.0 3.0 0.00 0.00 0.00 73 1014.2
20260509061004 56 188 1.0 3.0 0.00 0.00 0.00 73 1014.2
20260509060504 56 216 0.0 0.0 0.00 0.00 0.00 72 1014.3